Weather in Matadi

Democratic Republic of the Congo     5°50′27″S   13°28′14″E
temp.,
°C
wind,
m/s
gust,
m/s
humid.,
%
clouds,
%
prec.,
mm/h
press.,
hPa
HPBL,
m
20 january, thu
thu2001:00+22wsw2691100 0.0 1013428
04:00+22wsw1395100 0.0 1013231
07:00+22s129299 0.1 1014226
10:00+27sw117097 0.1 1014947
13:00+31sw115729 0.1 10111338
16:00+30sw225338 0.0 10081578
19:00+26wsw116749 0.0 100914
22:00+24wsw2582100 0.0 1012235
21 january, fri
fri2101:00+22sw1286100 0.0 1012106
04:00+22wnw1189100 0.1 101242
07:00+22sw1292100 1.2 1013105
10:00+24sw228397 0.2 1014346
13:00+25wsw028198 0.2 1011203
16:00+24n238798 0.0 1009111
19:00+23nnw228771 0.0 101018
22:00+22w1192100 0.0 101316
22 january, sat
sat2201:00+21wsw1197100 0.2 101212
04:00+21sw119864 0.8 101260
07:00+21wsw119691 0.8 1013124
10:00+25ssw2478100 0.0 1013564
13:00+25sse1278100 0.0 1011245
16:00+24ene1182100 0.0 100948
19:00+23nne117973 0.0 101011
22:00+22w1180100 0.0 101311
23 january, sun
sun2301:00+22w1185100 0.0 101221
04:00+21wsw11955 0.0 101216
07:00+22w119111 0.0 101266
10:00+27ssw226695 0.0 1013711
13:00+31sw225385 0.0 1009978
16:00+31sw23495 0.0 10071290
19:00+26w116324 0.0 100811
22:00+23wsw227853 0.0 101148
24 january, mon
mon2401:00+22wsw11845 0.0 101127
04:00+21wsw11874 0.0 101012
07:00+22wsw118734 0.0 101280
10:00+27wsw22645 0.0 1012785
13:00+31sw22535 0.0 10091357
16:00+31ssw2352100 0.0 10061398
19:00+26wsw3670100 0.1 1008200
22:00+23wsw278149 0.0 1011389